Regional Weather Roundup
Issued by NWS Cleveland, OH

Home | Current Version | Previous Version | Graphics & Text | Print | Product List | Glossary On
Versions: 1 2 3 4 5 6 7 8 9 10 11 12 13 14 15 16 17 18 19 20 21 22 23 24 25 26 27 28 29 30 31 32 33 34 35 36 37 38 39 40 41 42 43 44 45 46 47 48 49 50
000
ASUS41 KCLE 270200
RWRCLE
OHIO REGIONAL WEATHER ROUNDUP
NATIONAL WEATHER SERVICE WILMINGTON, OH
900 PM EST MON JAN 26 2015

NOTE: "FAIR" INDICATES FEW OR NO CLOUDS BELOW 12,000 FEET WITH NO
SIGNIFICANT WEATHER AND/OR OBSTRUCTIONS TO VISIBILITY.

OHZ001>008-015>018-024>027-034-035-043-044-270300-
   NORTHWEST OHIO

CITY           SKY/WX    TMP DP  RH WIND       PRES   REMARKS
DEFIANCE       PTCLDY    13   7  77 SW3       29.97R
FINDLAY        MOCLDY     9   6  88 SE3       29.94R
TOLEDO EXPRESS PTCLDY    13   8  81 CALM      29.96R
TOLEDO EXEC    PTCLDY    13   6  74 CALM      29.97R
LIMA           PTCLDY     8   4  83 CALM      29.94R
$$

OHZ009>014-019>023-028>033-038-089-270300-
   NORTHEAST OHIO

CITY           SKY/WX    TMP DP  RH WIND       PRES   REMARKS
CLE-HOPKINS    LGT SNOW  20  14  77 NW9       29.95R WCI   9
CLE-LAKEFRONT  CLOUDY    23  16  74 N9        29.93S WCI  13
CUY CO. ARPT   CLOUDY    23  19  86 N8        29.92R WCI  14
LORAIN-ELYRIA  CLOUDY    18  12  77 N6        29.93S WCI  10
ASHTABULA      FLURRIES  21  16  81 N7        29.89R WCI  12
AKRON-CANTON   CLOUDY    20  14  77 N12       29.87S WCI   8
WOOSTER        NOT AVBL
MANSFIELD      CLOUDY    13  10  88 N3        29.90R
YOUNGSTOWN     FLURRIES  20  15  81 NW8       29.85S WCI  10
$$

OHZ042-051>053-060>062-070>072-077>081-270300-
  SOUTHWEST OHIO

CITY           SKY/WX    TMP DP  RH WIND       PRES   REMARKS
CINC-COVINGTON MOCLDY    25  18  74 E7        29.93S WCI  17
CINC-LUNKEN    PTCLDY    21  14  74 NE5       29.98R WCI  15
HAMILTON       PTCLDY    19  15  84 E3        29.97R
DAYTON         NOT AVBL
WRIGHT-PAT AFB NOT AVBL
DAYTON GENERAL PTCLDY    15  11  83 CALM      29.93R
WILMINGTON     CLOUDY    14   9  80 CALM      29.92S
$$

OHZ036-037-039>041-045>050-054>059-063>069-073>076-082>088-270300-
  CENTRAL AND SOUTHEAST OHIO

CITY           SKY/WX    TMP DP  RH WIND       PRES   REMARKS
COLUMBUS       PTCLDY    15   9  76 N6        29.94S WCI   6
OSU AIRPORT    PTCLDY    11   7  84 NW5       29.94R WCI   3
BOLTON FIELD   NOT AVBL
RICKENBACK AFB NOT AVBL
NEWARK         CLOUDY    14   9  80 NW3       29.92S
MARION         MOCLDY     4   0  83 CALM      29.93S FOG
LANCASTER      MOCLDY     7   4  87 CALM      29.94S
ZANESVILLE     CLOUDY    19  14  81 NW6       29.91S WCI  11
NEW PHILLY     LGT SNOW  21  16  81 NW7       29.90R WCI  12
$$


USA.gov is the U.S. government's official web portal to all federal, state and local government web resources and services.